DW5065 Weather Reports


Display with metric or nautical units.
time (UTC)temp
F
wind
direction
speed
MPH
gust
MPH
rain 1hr
in
rain 24hr
in
rain mn
in
humidity
%
barometer
mb
20260507064503 44 0 0.0 0.0 0.00 0.55 0.00 95 1006.8
20260507063604 44 0 0.0 0.0 0.00 0.55 0.00 95 1006.5
20260507062703 44 0 0.0 0.0 0.00 0.55 0.00 95 1006.8
20260507061803 44 0 0.0 0.0 0.00 0.55 0.00 95 1007.1
20260507060903 44 0 0.0 0.0 0.00 0.55 0.00 95 1006.9
20260507060003 45 0 0.0 0.0 0.00 0.55 0.00 95 1007.1
20260507055403 45 0 0.0 0.0 0.00 0.55 0.00 95 1007.2
20260507054503 45 0 0.0 0.0 0.00 0.55 0.00 95 1007.1
20260507053603 45 0 0.0 0.0 0.00 0.55 0.00 95 1007.5
20260507052703 46 0 0.0 0.0 0.00 0.55 0.00 95 1007.6
20260507051803 46 0 0.0 0.0 0.00 0.55 0.00 95 1007.4
20260507050903 46 0 0.0 0.0 0.00 0.55 0.00 95 1007.2
20260507050024 46 0 0.0 0.0 0.00 0.55 0.00 95 1007.3
20260507045403 46 0 0.0 0.0 0.00 0.55 0.00 94 1007.1
20260507044503 46 0 0.0 0.0 0.00 0.55 0.00 94 1007.2
20260507043603 47 0 0.0 0.0 0.00 0.55 0.00 95 1006.9
20260507042724 47 0 0.0 0.0 0.00 0.55 0.00 95 1006.8
20260507041824 47 0 0.0 0.0 0.00 0.55 0.00 95 1007.2
20260507040903 47 0 0.0 0.0 0.00 0.55 0.00 95 1007.1
20260507040003 47 0 0.0 0.0 0.00 0.55 0.00 95 1007.2
20260507035403 47 0 0.0 0.0 0.00 0.55 0.55 95 1007.2
20260507034504 47 0 0.0 0.0 0.00 0.55 0.55 95 1007.1
20260507033603 48 0 0.0 0.0 0.00 0.55 0.55 95 1007.0
20260507032724 48 0 0.0 0.0 0.01 0.55 0.55 94 1007.0
20260507031803 48 0 0.0 0.0 0.02 0.55 0.55 94 1007.2
20260507030904 48 0 0.0 0.0 0.03 0.55 0.55 95 1007.1
20260507030004 48 0 0.0 0.0 0.03 0.55 0.55 95 1007.2
20260507025424 48 0 0.0 0.0 0.03 0.55 0.55 95 1007.2
20260507024504 48 0 0.0 0.0 0.04 0.55 0.55 94 1007.3
20260507023603 48 0 0.0 0.0 0.04 0.55 0.55 94 1007.4
20260507022703 48 0 0.0 0.0 0.03 0.54 0.54 94 1007.4
20260507021803 49 0 0.0 0.0 0.03 0.53 0.53 94 1007.5
20260507020903 49 0 0.0 0.0 0.02 0.52 0.52 94 1007.2
20260507020024 49 0 0.0 0.0 0.02 0.52 0.52 94 1007.3
20260507015403 49 0 0.0 0.0 0.02 0.52 0.52 94 1007.3
20260507014503 49 0 0.0 0.0 0.01 0.51 0.51 94 1007.1
20260507013624 49 0 0.0 0.0 0.02 0.51 0.51 94 1007.1
20260507012703 50 0 0.0 0.0 0.02 0.51 0.51 94 1006.9
20260507011824 50 0 0.0 0.0 0.01 0.50 0.50 94 1006.7
20260507010004 50 0 0.0 0.0 0.01 0.50 0.50 94 1006.4
20260507005403 51 0 0.0 0.0 0.01 0.50 0.50 94 1006.4
20260507004503 51 0 0.0 0.0 0.01 0.50 0.50 94 1006.1
20260507003603 52 0 0.0 0.0 0.00 0.49 0.49 94 1005.9
20260507002703 52 0 0.0 0.0 0.00 0.49 0.49 94 1005.7
20260507001803 52 324 0.0 1.0 0.00 0.49 0.49 94 1005.5
20260507000903 53 0 0.0 0.0 0.00 0.49 0.49 94 1005.1
20260507000003 54 0 0.0 0.0 0.01 0.49 0.49 94 1004.9
20260506235403 54 0 0.0 0.0 0.02 0.49 0.49 94 1004.7
20260506234503 55 0 0.0 0.0 0.03 0.49 0.49 94 1004.6
20260506233603 55 0 0.0 0.0 0.04 0.49 0.49 95 1004.3
20260506232702 56 0 0.0 0.0 0.04 0.49 0.49 95 1004.0
20260506231810 56 0 0.0 0.0 0.04 0.49 0.49 95 1004.0
20260506230904 57 0 0.0 0.0 0.04 0.49 0.49 95 1003.8
20260506230004 58 308 0.0 2.0 0.03 0.48 0.48 95 1003.4
20260506225425 58 308 0.0 2.0 0.02 0.47 0.47 95 1003.4
20260506224503 59 0 0.0 0.0 0.04 0.46 0.46 96 1003.1
20260506223603 59 0 0.0 0.0 0.06 0.45 0.45 96 1003.0
20260506222703 59 162 0.0 3.0 0.08 0.45 0.45 96 1003.0
20260506221803 59 191 0.0 4.0 0.08 0.45 0.45 95 1002.9
20260506220903 59 228 0.0 2.0 0.09 0.45 0.45 96 1002.9
20260506220003 59 0 0.0 0.0 0.09 0.45 0.45 96 1002.9
20260506215403 59 0 0.0 0.0 0.09 0.45 0.45 95 1003.0
20260506214503 60 0 0.0 0.0 0.06 0.42 0.42 95 1003.0
20260506213603 60 309 0.0 4.0 0.03 0.39 0.39 95 1002.8
20260506212703 60 327 0.0 3.0 0.02 0.38 0.37 95 1002.8
20260506211824 60 224 0.0 5.0 0.02 0.39 0.37 96 1002.6
20260506210903 60 0 0.0 0.0 0.02 0.39 0.36 96 1002.6
20260506210004 60 234 0.0 3.0 0.03 0.41 0.36 96 1002.7
20260506205403 60 205 0.0 4.0 0.04 0.41 0.36 96 1002.8
20260506204503 60 159 0.0 6.0 0.06 0.41 0.36 96 1002.8
20260506203603 60 167 0.0 6.0 0.09 0.41 0.36 95 1002.8
20260506202703 60 143 0.0 11.0 0.11 0.40 0.35 95 1002.9
20260506201803 60 0 0.0 0.0 0.15 0.40 0.35 95 1003.0
20260506200903 60 0 0.0 0.0 0.16 0.39 0.34 95 1003.2
20260506200003 60 0 0.0 0.0 0.15 0.38 0.33 95 1003.2
20260506195403 60 0 0.0 0.0 0.15 0.37 0.32 95 1003.3
20260506194503 60 0 0.0 0.0 0.13 0.35 0.30 95 1003.4
20260506193604 60 0 0.0 0.0 0.11 0.32 0.27 95 1003.5
20260506192703 60 0 0.0 0.0 0.09 0.29 0.24 95 1003.5
20260506191824 60 0 0.0 0.0 0.07 0.25 0.21 95 1003.6
20260506190924 60 0 0.0 0.0 0.05 0.23 0.18 95 1003.7
20260506190024 61 0 0.0 0.0 0.06 0.23 0.18 95 1003.7
20260506185424 60 0 0.0 0.0 0.05 0.22 0.17 95 1003.9
20260506184503 60 279 0.0 1.0 0.06 0.22 0.17 94 1003.9
20260506183624 60 0 0.0 0.0 0.06 0.21 0.16 94 1003.9
20260506182703 60 0 0.0 0.0 0.07 0.20 0.15 94 1004.1
20260506181804 60 0 0.0 0.0 0.06 0.18 0.13 94 1004.2
20260506180903 60 0 0.0 0.0 0.06 0.18 0.13 94 1004.3
20260506180004 60 0 0.0 0.0 0.06 0.17 0.12 93 1004.5
20260506175404 60 0 0.0 0.0 0.07 0.17 0.12 93 1004.6
20260506174503 60 0 0.0 0.0 0.07 0.16 0.11 93 1004.8
20260506173624 61 99 0.0 1.0 0.07 0.15 0.10 93 1005.1
20260506172703 61 0 0.0 0.0 0.06 0.13 0.08 93 1005.3
20260506171803 61 0 0.0 0.0 0.05 0.12 0.07 92 1005.2
20260506170904 61 0 0.0 0.0 0.06 0.12 0.07 92 1005.3
20260506170003 61 0 0.0 0.0 0.05 0.11 0.06 91 1005.2
20260506165403 61 0 0.0 0.0 0.04 0.10 0.05 91 1005.2
20260506164504 61 0 0.0 0.0 0.03 0.09 0.04 91 1005.1
20260506163624 62 0 0.0 0.0 0.02 0.08 0.03 90 1005.3
20260506162703 62 0 0.0 0.0 0.02 0.07 0.02 89 1005.5
20260506161803 62 0 0.0 0.0 0.02 0.07 0.02 89 1005.5
20260506160903 62 0 0.0 0.0 0.01 0.06 0.01 88 1005.6
20260506160003 62 0 0.0 0.0 0.01 0.06 0.01 88 1005.6
20260506155424 62 0 0.0 0.0 0.01 0.06 0.01 88 1005.7
20260506154503 62 0 0.0 0.0 0.01 0.06 0.01 88 1005.9
20260506153624 62 0 0.0 0.0 0.01 0.06 0.01 88 1006.2
20260506152703 62 0 0.0 0.0 0.00 0.05 0.00 87 1006.3
20260506151824 62 0 0.0 0.0 0.00 0.05 0.00 86 1006.6
20260506150903 62 0 0.0 0.0 0.00 0.05 0.00 84 1006.7
20260506150003 61 0 0.0 0.0 0.00 0.05 0.00 83 1006.9
20260506145404 62 0 0.0 0.0 0.00 0.05 0.00 83 1007.0
20260506144503 62 0 0.0 0.0 0.00 0.05 0.00 83 1006.7
20260506143624 62 0 0.0 0.0 0.00 0.05 0.00 83 1006.6
20260506142703 62 0 0.0 0.0 0.00 0.05 0.00 84 1006.4
20260506141803 62 0 0.0 0.0 0.00 0.05 0.00 84 1006.5
20260506140903 61 0 0.0 0.0 0.00 0.05 0.00 84 1006.6
20260506140002 61 0 0.0 0.0 0.00 0.05 0.00 85 1006.6
20260506135404 61 0 0.0 0.0 0.00 0.05 0.00 85 1006.6
20260506134504 60 0 0.0 0.0 0.00 0.05 0.00 86 1006.6
20260506133603 60 0 0.0 0.0 0.00 0.05 0.00 88 1006.7
20260506132704 60 0 0.0 0.0 0.00 0.05 0.00 88 1006.6
20260506131803 59 0 0.0 0.0 0.00 0.05 0.00 88 1006.8
20260506130903 59 0 0.0 0.0 0.00 0.05 0.00 89 1007.1
20260506130003 58 0 0.0 0.0 0.00 0.05 0.00 90 1007.3
20260506125403 58 0 0.0 0.0 0.00 0.05 0.00 91 1007.4
20260506124503 58 0 0.0 0.0 0.00 0.05 0.00 91 1007.4
20260506123603 57 0 0.0 0.0 0.00 0.05 0.00 91 1007.5
20260506122724 57 0 0.0 0.0 0.00 0.05 0.00 91 1006.8
20260506121803 57 0 0.0 0.0 0.00 0.05 0.00 92 1006.9
20260506120903 56 0 0.0 0.0 0.00 0.05 0.00 93 1007.0
20260506120003 56 0 0.0 0.0 0.00 0.05 0.00 93 1007.1
20260506115403 56 0 0.0 0.0 0.00 0.05 0.00 94 1007.2
20260506114503 55 0 0.0 0.0 0.00 0.05 0.00 94 1007.3
20260506113603 55 0 0.0 0.0 0.00 0.05 0.00 94 1007.4
20260506112704 54 0 0.0 0.0 0.00 0.05 0.00 95 1007.2
20260506111803 54 0 0.0 0.0 0.00 0.05 0.00 94 1007.2
20260506110903 54 0 0.0 0.0 0.00 0.05 0.00 94 1007.2
20260506110003 53 0 0.0 0.0 0.00 0.05 0.00 94 1007.4
20260506105424 53 0 0.0 0.0 0.00 0.05 0.00 94 1007.3
20260506104524 53 0 0.0 0.0 0.00 0.05 0.00 94 1007.1
20260506103603 52 0 0.0 0.0 0.00 0.05 0.00 94 1007.0
20260506102724 52 0 0.0 0.0 0.00 0.05 0.00 94 1007.2
20260506101824 52 0 0.0 0.0 0.00 0.05 0.00 93 1007.1
20260506100903 52 0 0.0 0.0 0.00 0.05 0.00 93 1007.3
20260506100003 52 0 0.0 0.0 0.00 0.05 0.00 93 1007.0
20260506095403 52 0 0.0 0.0 0.00 0.05 0.00 92 1007.3
20260506094503 53 0 0.0 0.0 0.00 0.05 0.00 92 1007.1
20260506093603 53 0 0.0 0.0 0.00 0.05 0.00 92 1007.1
20260506092703 53 0 0.0 0.0 0.00 0.05 0.00 92 1007.0
20260506091804 54 0 0.0 0.0 0.00 0.05 0.00 92 1007.0
20260506090903 54 0 0.0 0.0 0.00 0.05 0.00 91 1006.9
20260506090003 54 0 0.0 0.0 0.00 0.05 0.00 91 1007.2
20260506085403 54 0 0.0 0.0 0.00 0.05 0.00 91 1007.0
20260506084503 54 0 0.0 0.0 0.00 0.05 0.00 91 1007.2
20260506083603 54 0 0.0 0.0 0.00 0.05 0.00 91 1007.3
20260506082724 55 0 0.0 0.0 0.00 0.05 0.00 91 1007.3
20260506081803 55 0 0.0 0.0 0.00 0.05 0.00 90 1007.4
20260506080903 55 0 0.0 0.0 0.00 0.05 0.00 90 1007.6
20260506072703 56 0 0.0 0.0 0.00 0.05 0.00 91 1007.4
20260506071803 56 0 0.0 0.0 0.00 0.05 0.00 91 1007.6
20260506070903 56 0 0.0 0.0 0.00 0.05 0.00 91 1007.4